sat.trackr.live / text

‹ back to catalog

STARLINK-36583

NORAD 67545 · 2026-014P

PAYLOAD ACTIVE UNKNOWN

§ Identity

Operator
Country
US
Launch date
2026-01-22
Launch site
AFWTR
Launch vehicle
Mass (kg)
RCS (m²)

Purposes: comms

External: N2YO · Heavens-Above · Gunter

§ Orbital elements

Epoch: 2026-05-24T16:29:28.667904Z

Period
93.91 min
Inclination
97.2855°
Eccentricity
0.0001581
Mean motion
15.33450222 rev/d
Perigee alt
464.4 km
Apogee alt
466.6 km
Semi-major
6,843.7 km
B*
7.5525e-4
RAAN
31.7905°
Arg perigee
97.7918°
Mean anomaly
262.3504°
Rev number
2,043

§ Raw data

STARLINK-365831 67545U 26014P   26144.68713736  .00024390  00000+0  75525-3 0  99922 67545  97.2855  31.7905 0001581  97.7918 262.3504 15.33450222 20434

JSON: /api/v1/satellites/67545 · /tle

For live sub-satellite position, see the globe view (requires WebGL).

§ Visibility from observer

Set your observer location to see the next 7 days of passes ≥ 10°. The values pass through the URL so the page stays shareable.

No JS? Fill the form by hand. The geolocation button needs JavaScript.